Boone, NC

8:47 AM EDT on June 26, 2019 (GMT -0400)
Boone

Weather History for KTNB - May, 2019

Change the Weather History Date:

Wednesday, May 22, 2019

  Actual Average (KGEV) Record (KGEV)
Temperature  
Mean Temperature 62 °F -  
Max Temperature 73 °F 72 °F 86 °F (1970)
Min Temperature 52 °F 48 °F 32 °F (1968)
Degree Days  
Heating Degree Days 2    
Growing Degree Days 12 (Base 50)    
Moisture  
Dew Point 58 °F    
Average Humidity 90    
Maximum Humidity 100    
Minimum Humidity 66    
Precipitation  
Precipitation 0.00 in - - ()
Sea Level Pressure  
Sea Level Pressure 30.27 in    
Wind  
Wind Speed 0 mph (SE)    
Max Wind Speed 8 mph    
Max Gust Speed -    
Visibility 8 miles    
Events Rain    
Averages and records for this station are not official NWS values.
T = Trace of Precipitation, MM = Missing Value Source: NWS Daily Summary

Daily Weather History Graph

Daily Weather History Graph

Search for Another Location

Airport or City:

Astronomy

May. 22, 2019 Rise Set
Actual Time 6:15 AM EDT 8:31 PM EDT
Civil Twilight 5:46 AM EDT 9:00 PM EDT
Nautical Twilight 5:10 AM EDT 9:36 PM EDT
Astronomical Twilight 4:31 AM EDT 10:15 PM EDT
Moon No Moon Rise 9:23 AM EDT (5/22)
Length of Visible Light 15h 14m
Length of Day
14h 15m
Waning Gibbous, 85% of the Moon is Illuminated
May 22
Waning Gibbous
May 26
Last Quarter
Jun 3
New
Jun 10
First Quarter
Jun 17
Full

Hourly Weather History & Observations

Time (EDT) Temp. Dew Point Humidity Pressure Visibility Wind Dir Wind Speed Gust Speed Precip Events Conditions
12:15 AM 57.0 °F 55.8 °F 96% 30.18 in 10.0 mi Calm Calm - N/A   Clear
12:35 AM 55.8 °F 55.6 °F 99% 30.18 in 10.0 mi Calm Calm - N/A   Clear
12:55 AM 57.4 °F 56.1 °F 96% 30.19 in 10.0 mi Calm Calm - N/A   Clear
1:15 AM 57.9 °F 56.1 °F 94% 30.19 in 10.0 mi Calm Calm - N/A   Clear
1:35 AM 57.2 °F 56.1 °F 96% 30.20 in 10.0 mi Calm Calm - N/A   Clear
1:55 AM 57.0 °F 56.3 °F 97% 30.20 in 10.0 mi Calm Calm - N/A   Clear
2:15 AM 58.6 °F 55.2 °F 88% 30.21 in 10.0 mi Calm Calm - N/A   Clear
2:35 AM 56.7 °F 55.4 °F 96% 30.21 in 10.0 mi Calm Calm - N/A   Clear
2:55 AM 56.3 °F 55.4 °F 97% 30.21 in 10.0 mi Calm Calm - N/A   Clear
3:15 AM 56.7 °F 55.0 °F 94% 30.21 in 10.0 mi Calm Calm - N/A   Clear
3:35 AM 55.6 °F 54.1 °F 95% 30.21 in 10.0 mi Calm Calm - N/A   Clear
3:55 AM 55.4 °F 55.2 °F 99% 30.22 in 10.0 mi Calm Calm - N/A   Clear
4:15 AM 54.1 °F 53.1 °F 96% 30.21 in 10.0 mi Calm Calm - N/A   Clear
4:35 AM 54.7 °F 54.7 °F 100% 30.22 in 10.0 mi Calm Calm - N/A   Clear
4:55 AM 54.7 °F 54.5 °F 99% 30.23 in 10.0 mi Calm Calm - N/A   Clear
5:15 AM 54.1 °F 54.1 °F 100% 30.24 in 10.0 mi Calm Calm - N/A   Clear
5:35 AM 53.1 °F 53.1 °F 100% 30.25 in 10.0 mi Calm Calm - N/A   Clear
5:55 AM 52.7 °F 52.7 °F 100% 30.25 in 10.0 mi Calm Calm - N/A   Clear
6:15 AM 52.7 °F 52.7 °F 100% 30.26 in 7.0 mi Calm Calm - N/A   Clear
6:35 AM 52.9 °F 52.9 °F 100% 30.26 in 7.0 mi Calm Calm - N/A   Clear
6:55 AM 54.5 °F 54.5 °F 100% 30.26 in 10.0 mi Calm Calm - N/A   Clear
7:15 AM 54.5 °F 54.5 °F 100% 30.26 in 10.0 mi Calm Calm - N/A   Scattered Clouds
7:35 AM 55.9 °F 55.6 °F 99% 30.28 in 10.0 mi Calm Calm - N/A   Scattered Clouds
7:55 AM 57.0 °F 57.0 °F 100% 30.26 in 7.0 mi Calm Calm - N/A   Scattered Clouds
8:15 AM 57.7 °F 57.4 °F 99% 30.26 in 7.0 mi Calm Calm - N/A   Mostly Cloudy
8:35 AM 58.6 °F 57.7 °F 97% 30.26 in 7.0 mi Calm Calm - N/A   Overcast
8:55 AM 59.7 °F 58.1 °F 94% 30.26 in 7.0 mi Calm Calm - N/A   Mostly Cloudy
9:15 AM 59.5 °F 58.3 °F 96% 30.27 in 7.0 mi Calm Calm - N/A   Mostly Cloudy
9:35 AM 61.7 °F 58.6 °F 90% 30.27 in 10.0 mi Calm Calm - N/A   Scattered Clouds
9:55 AM 61.5 °F 58.3 °F 89% 30.27 in 10.0 mi Calm Calm - N/A   Scattered Clouds
10:15 AM 61.9 °F 58.5 °F 89% 30.27 in 10.0 mi Calm Calm - N/A   Mostly Cloudy
10:35 AM 59.9 °F 58.1 °F 94% 30.28 in 7.0 mi Calm Calm - N/A   Overcast
10:55 AM 60.8 °F 58.6 °F 93% 30.29 in 7.0 mi Calm Calm - N/A   Overcast
11:15 AM 63.0 °F 57.9 °F 84% 30.29 in 7.0 mi Calm Calm - N/A   Overcast
11:35 AM 64.8 °F 58.6 °F 81% 30.29 in 10.0 mi Calm Calm - N/A   Mostly Cloudy
11:55 AM 66.4 °F 59.0 °F 77% 30.28 in 10.0 mi Calm Calm - N/A   Scattered Clouds
12:15 PM 66.6 °F 59.7 °F 79% 30.29 in 7.0 mi Calm Calm - N/A   Mostly Cloudy
12:35 PM 66.0 °F 59.0 °F 78% 30.30 in 10.0 mi Calm Calm - N/A   Overcast
12:55 PM 70.3 °F 60.8 °F 72% 30.30 in 10.0 mi Calm Calm - N/A   Mostly Cloudy
1:15 PM 68.9 °F 59.7 °F 72% 30.29 in 10.0 mi South 8.1 mph - N/A   Clear
1:35 PM 73.0 °F 61.2 °F 66% 30.30 in 10.0 mi Calm Calm - N/A   Scattered Clouds
1:55 PM 67.3 °F 59.4 °F 76% 30.30 in 10.0 mi Calm Calm - N/A   Mostly Cloudy
2:15 PM 70.5 °F 59.9 °F 69% 30.30 in 10.0 mi Calm Calm - N/A   Scattered Clouds
2:35 PM 67.1 °F 59.4 °F 76% 30.30 in 10.0 mi ESE 5.8 mph - N/A   Mostly Cloudy
2:55 PM 69.8 °F 59.9 °F 71% 30.30 in 10.0 mi Calm Calm - N/A   Scattered Clouds
3:15 PM 69.8 °F 60.6 °F 73% 30.29 in 10.0 mi Calm Calm - N/A   Scattered Clouds
3:35 PM 71.1 °F 60.6 °F 69% 30.29 in 10.0 mi Calm Calm - N/A   Scattered Clouds
3:55 PM 70.5 °F 59.5 °F 68% 30.29 in 10.0 mi Calm Calm - N/A   Scattered Clouds
4:15 PM 70.5 °F 59.5 °F 68% 30.29 in 10.0 mi Calm Calm - N/A   Scattered Clouds
4:35 PM 68.0 °F 59.2 °F 73% 30.29 in 10.0 mi Calm Calm - N/A   Mostly Cloudy
4:55 PM 66.6 °F 59.2 °F 77% 30.29 in 10.0 mi Calm Calm - N/A   Overcast
5:15 PM 65.8 °F 59.2 °F 79% 30.29 in 10.0 mi Calm Calm - N/A   Overcast
5:35 PM 64.6 °F 59.2 °F 83% 30.29 in 10.0 mi Calm Calm - N/A   Overcast
5:55 PM 65.3 °F 59.9 °F 83% 30.29 in 10.0 mi Calm Calm - N/A   Overcast
6:15 PM 65.8 °F 59.7 °F 81% 30.29 in 10.0 mi Calm Calm - N/A   Overcast
6:35 PM 64.0 °F 59.9 °F 86% 30.29 in 10.0 mi Calm Calm - N/A   Overcast
6:55 PM 64.4 °F 59.9 °F 85% 30.29 in 7.0 mi Calm Calm - N/A   Overcast
7:15 PM 63.5 °F 61.3 °F 93% 30.29 in 7.0 mi Calm Calm - N/A   Overcast
7:35 PM 63.5 °F 61.7 °F 94% 30.30 in 7.0 mi Calm Calm - N/A   Overcast
7:55 PM 63.5 °F 61.7 °F 94% 30.30 in 7.0 mi Calm Calm - N/A   Overcast
8:15 PM 63.1 °F 61.7 °F 95% 30.31 in 7.0 mi Calm Calm - N/A   Overcast
8:35 PM 63.0 °F 61.9 °F 96% 30.31 in 5.0 mi Calm Calm - N/A   Overcast
8:55 PM 62.6 °F 61.9 °F 97% 30.31 in 7.0 mi Calm Calm - N/A   Overcast
9:15 PM 62.6 °F 62.1 °F 98% 30.32 in 7.0 mi Calm Calm - N/A   Mostly Cloudy
9:35 PM 63.5 °F 62.2 °F 96% 30.32 in 7.0 mi Calm Calm - N/A   Overcast
9:55 PM 63.0 °F 62.4 °F 98% 30.32 in 7.0 mi Calm Calm - N/A   Overcast
10:15 PM 62.2 °F 61.9 °F 99% 30.33 in 4.0 mi Calm Calm - N/A   Overcast
10:35 PM 61.7 °F 61.7 °F 100% 30.34 in 3.0 mi Calm Calm - N/A   Overcast
10:55 PM 61.9 °F 61.9 °F 100% 30.35 in 4.0 mi Calm Calm - N/A   Overcast
11:15 PM 61.9 °F 61.9 °F 100% 30.35 in 3.0 mi Calm Calm - N/A Rain Light Rain
11:35 PM 61.7 °F 61.7 °F 100% 30.35 in 3.0 mi Calm Calm - N/A   Overcast
11:55 PM 61.3 °F 61.3 °F 100% 30.35 in 2.0 mi Calm Calm - N/A   Overcast